Regional Weather Roundup
Issued by NWS

Home | Current Version | Previous Version | Text Only | Print | Product List | Glossary On
Versions: 1 2 3 4 5 6 7 8 9 10 11 12 13 14 15 16 17 18 19 20 21 22 23 24 25 26 27 28 29 30 31 32 33 34 35 36 37 38 39 40 41 42 43 44 45 46 47 48 49 50
000
ASUS42 KTBW 271217
RWRFL
FLORIDA REGIONAL WEATHER ROUNDUP
NATIONAL WEATHER SERVICE TAMPA BAY RUSKIN FL
800 AM EDT MON MAR 27 2017

NOTE: "FAIR" INDICATES FEW OR NO CLOUDS BELOW 12,000 FEET WITH NO
SIGNIFICANT WEATHER AND/OR OBSTRUCTIONS TO VISIBILITY.

FLZ001>010-012>015-112-114-115-271300-
PANHANDLE FLORIDA

CITY           SKY/WX    TMP DP  RH WIND       PRES   REMARKS
PENSACOLA      CLOUDY    70  67  90 S3        30.06R
PENSACOLA NAS  MOCLDY    65  63  93 E3        30.05R
MILTON NAS     FOG       66  66 100 SE3       30.07  VSB 1/4
CRESTVIEW      CLOUDY    66  65  96 CALM      30.08R FOG
DUKE FIELD     CLOUDY    66  66 100 S5        30.07R FOG
VALPARAISO     FOG       67  67 100 SE3       30.07R VSB 1/8
PANAMA CITY    FOG       64  63  96 E5        30.08R VSB 1/2
TYNDALL AFB    FOG       63  63 100 E3        30.08S VSB 1/8
APALACHICOLA   PTCLDY    66  66 100 SE5       30.08R

STATION/POSITION SKY/WX   TEMP    WIND        PRES    WAVE   SWELL
                          AIR SEA DIR/SP/G            HT/PER HT/PER
                          (F)     (DEG/KT/KT) (MB)    (FT/S) (FT/S)
30.1N   87.6W              69 69  160/  6/  6 1016.9    3/ 6   2/ 6
29.2N   88.2W              72 73  160/  8/ 12 1017.0R   3/ 5   2/ 6
28.8N   86.0W              71 71              1017.5    2/ 8   2/ 8
PANAMA CITY BEAC           65 71  160/ 12/ 12 1018.8R
TOWER C                    68     120/  8/  9 1019.3R
28.5N   84.5W              69 70  100/  8/  8 1017.7    2/ 5   2/ 5

$$
FLZ011-016>038-118-127-128-134-139-239-271300-
NORTH FLORIDA

CITY           SKY/WX    TMP DP  RH WIND       PRES   REMARKS
MARIANNA       FOG       59  59 100 CALM      30.09R VSB<1/4
TALLAHASSEE    MOCLDY    57  57 100 CALM      30.09S FOG
PERRY            N/A     59  57  94 SE3       30.12R FOG
CROSS CITY     PTCLDY    55  54  94 CALM      30.11R
LAKE CITY      FAIR      57  57 100 CALM      30.12R
GAINESVILLE    CLEAR     56  55  97 CALM      30.11S
WILLISTON      CLEAR     57  57 100 CALM      30.12R
PALATKA        FOG       54  54 100 W5        30.13R VSB<1/4
MAYPORT NAS    PTCLDY    63  60  90 CALM      30.12R
JACKSONVILLE   CLEAR     56  56 100 CALM      30.12R
JAX NAS        CLEAR     64  62  93 CALM      30.13R
FERNANDINA BEA FAIR      63  61  94 CALM      30.11R
ST AUGUSTINE   CLEAR     60  56  86 CALM      30.13R
PALM COAST     CLEAR     57  57 100 CALM      30.12R

STATION/POSITION SKY/WX   TEMP    WIND        PRES    WAVE   SWELL
                          AIR SEA DIR/SP/G            HT/PER HT/PER
                          (F)     (DEG/KT/KT) (MB)    (FT/S) (FT/S)
SHELL POINT      NOT AVBL
KEATON BEACH               61      90/  7/  8 1019.1R
CEDAR KEY                  69     150/ 11/ 12 1019.8R
FERNANDINA                 64 67  100/  2/  3 1020.7R
30.7N   81.3W                 65                N/A     4/10   2/11
MAYPORT                    64 67  210/  1/  1 1020.2R
31.4N   80.9W              64 62  180/  2/  2 1019.7R   4/10   3/10
ST AUGUSTINE               65 68   CALM  /  1 1020.9R

$$
FLZ040-043>046-052-053-057-058-063-144-271300-
INTERIOR CENTRAL FLORIDA

CITY           SKY/WX    TMP DP  RH WIND       PRES   REMARKS
OCALA          CLEAR     55  52  88 CALM      30.12R
THE VILLAGES     N/A     59  59 100 CALM      30.02S
LEESBURG       CLEAR     62  60  93 NE3       30.12R
SANFORD        CLEAR     62  60  93 CALM      30.11R
ORLANDO EXEC   CLEAR     63  61  93 CALM      30.11R
ORLANDO INTL   PTCLDY    62  59  90 N5        30.12R
KISSIMMEE      CLEAR     62  60  93 NW3       30.13R
WINTER HAVEN   CLEAR     61  59  93 NE3       30.12R
LAKELAND       CLEAR     59  57  94 CALM      30.11R
BARTOW         CLEAR     57  57 100 CALM      30.11R
OKEECHOBEE     CLEAR    N/A N/A N/A CALM      30.09R

$$
FLZ041-047-054-059-064-141-147-271300-
EAST CENTRAL FLORIDA

CITY           SKY/WX    TMP DP  RH WIND       PRES   REMARKS
ORMOND BEACH   CLEAR     57  55  94 CALM      30.11R
DAYTONA BEACH  CLEAR     59  59 100 CALM      30.11R
DELAND         CLEAR     57  55  94 CALM      30.12R
JFK SPACE CTR  CLEAR     58  58 100 CALM      30.09R
TITUSVILLE     CLEAR     54  54 100 W6        30.09
CAPE CANAVERAL CLEAR     59  53  81 N3        30.08R
PATRICK AFB    CLEAR     69  61  75 N3        30.08R
MELBOURNE      CLEAR     61  60  97 W6        30.09R
VERO BEACH     CLEAR     59  57  93 W3        30.08R
FT PIERCE      CLEAR     57  56  96 NW3       30.08R
STUART         PTCLDY    66  61  82 VRB3      30.08R

STATION/POSITION SKY/WX   TEMP    WIND        PRES    WAVE   SWELL
                          AIR SEA DIR/SP/G            HT/PER HT/PER
                          (F)     (DEG/KT/KT) (MB)    (FT/S) (FT/S)
TRIDENT PIER               62 71   10/  2/  3 1020.0R
28.4N   80.5W                 71                N/A     3/10   2/11
27.5N   80.2W                 73                N/A     4/10   2/11

$$
FLZ050-056-061-142-242-148-248-149-249-151-251-155-255-
160-260-271300-
WEST CENTRAL FLORIDA

CITY           SKY/WX    TMP DP  RH WIND       PRES   REMARKS
CRYSTAL RIVER  FAIR      55  55 100 CALM      30.12R
INVERNESS      FAIR      55  55 100 CALM      30.12R
BROOKSVILLE    CLEAR     56  55  97 CALM      30.12R FOG
CLEARWATER AIR FAIR      66  63  88 CALM      30.09R
ST PETE CLEARW CLEAR     64  62  93 SE5       30.10R
TAMPA INTL     PTCLDY    67  60  78 CALM      30.10R
TAMPA EXEC     CLEAR     59  55  88 CALM      30.11R
PLANT CITY     CLEAR     61  61 100 CALM      30.12S
MACDILL AFB    CLEAR     61  61  99 E3        30.10R
PETER O KNIGHT CLOUDY    66  64  94 E3        30.11R
ST PETERSBURG  CLEAR     67  63  87 SE8       30.08R
SARASOTA       CLEAR     62  60  93 E3        30.08R
VENICE           N/A     63  63 100 NE6       30.09R

STATION/POSITION SKY/WX   TEMP    WIND        PRES    WAVE   SWELL
                          AIR SEA DIR/SP/G            HT/PER HT/PER
                          (F)     (DEG/KT/KT) (MB)    (FT/S) (FT/S)
27.3N   84.2W                 71                N/A     2/ 5
CLEARWATER BEACH           69 71  120/  5/  7 1019.1R
MIDDLE TAMPA BAY           65     110/  6/  7 1019.3R
VENICE                     65 70   60/  6/  7 1018.6R

$$
FLZ066-069-070-075>078-162-262-165-265-271300-
SOUTHWEST FLORIDA AND KEYS

CITY           SKY/WX    TMP DP  RH WIND       PRES   REMARKS
PUNTA GORDA    PTCLDY    58  58 100 NE5       30.11R
FT MYERS       CLEAR     64  61  90 NE5       30.07R
SOUTHWEST INTL CLEAR     60  57  89 NE5       30.07R
NAPLES         CLEAR     63  61  93 NE6       30.06R
IMMOKALEE      FAIR      55  54  94 CALM      30.07R FOG
MARATHON       PTCLDY    74  68  81 NE7       30.02S
KEY WEST NAS   PTCLDY    72  64  76 NE6       30.03R
KEY WEST INTL  PTCLDY    73  65  75 NE6       30.04R

STATION/POSITION SKY/WX   TEMP    WIND        PRES    WAVE   SWELL
                          AIR SEA DIR/SP/G            HT/PER HT/PER
                          (F)     (DEG/KT/KT) (MB)    (FT/S) (FT/S)
NAPLES                        72              1017.9R
26.0N   85.6W              76 78  120/ 12/ 16 1017.0R   3/ 7   2/ 7
DRY TORTUGAS               73     100/ 11/ 12 1017.0R
SAND KEY                   74      70/ 12/ 13 1017.4R
LONG KEY                   72 74   40/  9/ 10 1017.1R
MOLASSES REEF              74 77   90/ 12/ 12 1017.1R

$$
FLZ067-068-071>074-168-172>174-271300-
SOUTHEAST FLORIDA

CITY           SKY/WX    TMP DP  RH WIND       PRES   REMARKS
W PALM BEACH   PTCLDY    71  59  65 E6        30.06R
BOCA RATON     PTCLDY    70  61  73 E5        30.05R
FT LAUDER-EXEC PTCLDY    68  61  78 N5        30.05R
FT LAUDERDALE  PTCLDY    68  62  81 CALM      30.04R
POMPANO BEACH  PTCLDY    73  62  68 NE9       30.05R
PEMBROKE PINES PTCLDY    66  62  87 NW3       30.06R
OPA LOCKA      CLEAR    N/A N/A N/A NW3       30.05R
MIAMI          PTCLDY    69  61  75 CALM      30.05R
WEST KENDALL   CLEAR     61  59  93 NW3       30.04R
HOMESTEAD      CLEAR     65  63  94 NW3       30.03S

STATION/POSITION SKY/WX   TEMP    WIND        PRES    WAVE   SWELL
                          AIR SEA DIR/SP/G            HT/PER HT/PER
                          (F)     (DEG/KT/KT) (MB)    (FT/S) (FT/S)
PORT EVERGLADES            74      80/  6/ 10 1017.0R
VIRGINIA KEY               74     100/  6/  9 1017.5R
LAKE WORTH                        100/  9/ 12   N/A
FOWEY ROCKS                74 76   80/ 10/ 11 1017.8R
SETTLEMENT POINT           71      80/ 11/ 12 1018.1R

$$




USA.gov is the U.S. government's official web portal to all federal, state and local government web resources and services.